Temperature
22 21 21 22 27 28 27 27 27 27 26 25 25 25 25 24 24 22 20 19 19 19 18 18 19 19 19 19 18 18 18 18 18 18 18 18 18 18 18 18 18 18 18 18 18 18 18 18 18
21 21 22 25 29 28 27 27 27 26 25 25 24 24 24 23 22 21 19 19 19 19 19 18 19 19 19 19 18 18 18 18 18 18 18 18 18 18 18 18 18 18 18 18 18 18 18 18 18
21 21 25 29 29 28 27 27 27 26 25 25 25 24 24 22 21 20 19 19 19 19 18 18 19 19 19 18 18 18 18 18 18 18 18 18 18 18 18 18 18 18 18 18 18 18 18 18 18
22 24 27 29 28 28 28 27 27 27 25 25 25 24 22 21 21 20 19 19 19 19 18 18 18 18 18 18 18 18 18 18 18 18 18 18 18 18 18 18 18 18 18 18 18 18 18 18 18
23 28 30 29 28 28 28 28 27 27 26 25 25 24 22 20 20 20 19 19 19 19 18 18 18 18 18 18 18 18 18 18 18 18 18 18 18 18 18 18 18 18 18 18 18 18 18 18 18
27 30 30 29 28 28 28 27 27 27 26 25 25 24 22 20 20 20 19 19 19 19 19 18 18 18 18 18 18 18 18 18 18 18 18 18 18 18 18 18 18 18 18 18 18 18 18 18 18
29 31 30 29 29 28 28 27 27 27 26 25 25 25 22 21 20 20 19 19 19 19 19 18 18 18 18 18 18 18 18 18 18 18 18 18 18 18 18 18 18 18 18 18 18 18 18 18 18
28 31 30 30 29 29 28 27 27 27 26 25 25 25 23 21 20 20 19 19 19 19 19 19 18 18 18 18 18 18 18 18 18 18 18 18 18 18 18 18 18 18 18 18 18 18 18 18 18
28 31 30 30 30 29 29 28 27 26 25 25 24 24 23 21 20 20 20 19 19 19 19 19 19 18 18 18 18 18 18 18 18 18 18 18 18 18 18 18 18 18 18 18 18 18 18 18 18
30 31 31 31 31 30 29 28 27 27 26 25 24 23 22 21 20 20 20 20 19 19 19 19 19 18 18 18 18 18 18 18 18 18 18 18 18 18 18 18 18 18 18 18 18 18 18 18 18
31 31 31 31 30 30 29 28 28 28 28 26 25 23 22 21 21 21 21 20 20 19 19 19 19 18 18 18 18 18 18 18 18 18 18 18 18 18 18 18 18 18 18 18 18 18 18 18 18
31 31 31 30 30 30 29 29 28 28 27 26 24 23 22 22 22 21 21 20 20 19 19 19 19 19 18 18 18 18 18 18 18 18 18 18 18 18 18 18 18 18 18 18 18 18 18 18 18
31 31 30 30 30 29 29 29 28 27 26 25 24 23 22 22 22 21 21 20 20 19 19 19 19 19 18 18 18 18 18 18 18 18 18 18 18 18 18 18 18 18 18 18 18 18 18 18 18
31 31 30 30 30 29 29 29 28 27 26 25 24 23 23 23 22 22 21 20 20 20 19 19 19 19 19 19 18 18 18 18 18 18 18 18 18 18 18 18 18 18 18 18 18 18 18 18 18
31 31 31 31 30 30 30 29 29 27 26 25 24 24 23 23 22 22 21 21 20 20 19 19 19 19 19 19 18 18 18 18 18 18 18 18 18 18 18 18 18 18 18 18 18 18 18 18 18
32 32 31 31 31 30 30 30 29 27 27 26 25 24 23 23 22 22 21 21 20 20 20 19 19 19 19 19 19 19 19 18 18 18 18 18 18 18 18 18 18 18 18 18 18 18 18 18 18
32 32 32 31 31 30 30 30 30 27 27 27 26 25 24 23 23 22 22 21 21 20 20 20 19 19 19 19 19 18 18 18 18 18 18 18 18 18 18 18 18 18 18 18 18 18 18 18 18
32 32 32 31 31 31 30 30 30 28 28 27 26 26 25 24 23 23 22 21 21 20 20 20 20 19 19 19 19 19 19 18 18 18 18 18 18 18 18 18 18 18 18 18 18 18 18 18 18
32 32 32 32 31 31 30 30 30 29 28 28 27 26 25 25 24 23 22 21 21 20 20 20 20 19 19 19 19 19 19 19 18 18 18 18 18 18 18 18 18 18 18 18 18 18 18 18 18
32 31 32 31 31 31 31 30 31 30 29 28 28 27 26 25 24 23 22 22 21 21 20 20 20 20 19 19 19 19 19 18 18 18 18 18 18 18 18 18 18 18 18 18 18 18 18 18 18
31 32 32 31 31 31 31 31 31 31 29 28 28 27 27 26 25 23 23 22 22 21 21 21 20 20 20 19 19 19 19 19 19 19 18 18 18 18 18 18 18 18 18 18 18 18 18 18 18
31 32 31 31 31 31 31 31 31 31 30 29 28 28 27 26 25 24 23 23 22 22 21 21 20 20 20 20 19 19 19 19 19 19 19 18 18 18 18 18 18 18 18 18 18 18 18 18 18
31 31 31 31 31 31 31 31 32 31 30 30 30 28 28 27 26 25 24 23 23 22 22 21 21 21 20 20 19 19 19 19 19 19 19 19 18 19 18 18 18 18 18 18 18 18 18 18 18
31 31 31 31 32 30 31 31 31 32 31 31 31 29 28 27 26 25 25 24 23 22 22 22 21 21 21 20 20 20 19 19 19 19 19 19 19 19 19 18 19 19 18 18 18 18 18 18 18
31 31 30 30 30 30 31 31 31 32 32 31 31 29 28 27 27 26 25 24 23 23 22 22 21 21 21 20 20 20 20 19 19 19 19 19 19 19 19 19 19 19 19 19 18 19 18 18 18
31 31 30 30 30 31 30 31 32 32 31 30 30 29 28 28 27 26 25 24 23 23 22 22 22 21 21 21 20 20 20 19 19 19 19 19 19 19 19 19 19 19 19 18 19 18 18 18 18
31 31 32 32 31 31 31 31 32 32 31 30 30 29 28 28 27 26 25 24 24 23 22 22 22 21 21 21 21 20 20 20 19 19 19 19 19 19 19 19 19 19 19 19 19 18 18 18 18
31 32 31 31 29 30 31 31 31 31 31 31 30 29 28 27 27 26 25 25 24 23 23 22 22 21 21 21 21 20 20 20 20 19 19 19 19 19 19 19 19 19 19 19 19 18 18 18 18
30 31 31 31 31 30 30 31 32 31 31 31 30 29 28 28 27 26 25 24 24 23 23 22 21 21 21 21 21 20 20 20 20 20 19 20 20 20 19 19 19 19 19 19 19 18 18 18 18
31 31 31 30 29 30 31 31 31 31 31 30 29 28 27 26 26 25 25 24 23 23 22 22 22 21 21 21 21 21 21 20 20 20 20 20 20 20 19 19 19 19 19 18 18 18 18 18 18
Wind_Speed
14 10 6 4 3 4 11 9 7 7 6 7 7 5 6 8 6 5 4 4 4 4 6 7 8 8 9 10 11 12 13 14 14 14 15 16 17 18 19 20 20 21 21 21 21 21 21 20 20
9 6 5 3 2 8 10 8 9 9 7 6 6 6 7 7 7 6 4 4 3 5 6 8 9 9 10 11 12 13 13 14 15 15 16 16 17 18 19 20 20 21 21 21 21 20 20 19 18
7 6 3 1 8 10 10 8 8 8 6 4 5 6 6 6 6 5 5 4 4 6 7 9 9 11 12 13 13 13 14 14 15 15 15 16 17 18 19 19 20 20 20 20 20 19 19 18 18
5 4 2 4 12 11 8 7 6 7 6 5 5 7 7 6 4 6 7 5 6 7 8 11 10 11 12 12 13 13 14 14 15 15 16 16 17 18 18 19 19 19 19 19 19 18 18 18 17
5 3 3 8 11 9 8 6 5 6 6 6 6 8 9 7 7 8 7 6 6 7 8 11 10 10 12 12 12 13 13 14 15 15 16 16 16 17 18 18 17 18 18 18 17 17 17 16 15
3 2 4 9 10 8 7 5 5 7 8 7 7 9 8 7 7 7 7 6 6 7 8 9 10 10 11 11 12 12 12 13 13 14 15 16 16 16 16 16 16 16 16 16 16 15 15 14 14
3 3 7 8 8 7 6 5 5 6 7 6 5 8 8 8 7 7 7 7 6 7 7 7 8 10 10 11 11 11 11 12 12 12 13 15 15 15 15 15 15 15 14 14 13 13 13 13 12
3 1 6 7 7 8 6 5 5 5 7 7 4 6 9 10 8 7 7 7 6 6 6 6 7 7 8 10 11 10 11 11 11 11 12 13 14 14 14 15 14 13 13 12 12 11 11 11 10
4 1 7 8 7 7 6 6 6 5 7 6 5 7 11 12 9 8 7 7 6 5 6 6 6 7 6 7 9 9 9 9 9 10 10 9 10 12 12 13 12 12 12 11 11 10 10 10 11
2 5 9 6 6 7 6 5 6 6 7 7 8 10 12 11 9 8 7 7 7 6 6 6 5 6 5 5 6 5 6 7 7 7 8 8 8 8 10 13 11 10 10 11 10 9 9 8 8
2 5 6 5 5 6 7 6 5 5 6 7 9 12 13 11 8 7 7 7 6 6 6 6 6 5 5 4 4 4 5 5 7 7 7 7 6 7 7 7 9 9 9 7 9 7 5 4 4
3 4 3 5 5 5 6 6 5 4 6 7 10 13 12 11 9 7 7 6 6 5 5 5 5 5 4 3 4 4 4 4 5 6 5 6 4 4 5 4 5 5 5 5 4 3 3 3 4
3 4 4 4 5 5 6 6 5 5 6 8 11 12 11 10 8 7 6 6 6 6 6 5 5 5 4 3 2 4 4 4 5 4 5 4 4 4 4 3 3 4 4 4 3 3 3 2 3
3 4 5 5 5 5 5 5 4 6 8 10 11 11 11 9 8 7 6 6 6 6 6 6 6 6 5 4 3 3 3 3 4 3 4 3 3 3 3 3 3 3 3 2 2 2 2 1 1
5 5 5 5 5 4 4 5 4 8 10 10 11 10 10 9 8 7 7 6 6 6 6 6 6 6 5 4 4 3 3 4 3 3 4 3 3 3 2 2 2 2 3 3 2 2 2 2 2
5 5 4 5 5 4 6 3 7 9 10 10 10 10 10 9 9 8 7 6 6 6 7 7 6 7 6 4 3 3 3 3 2 3 3 3 3 3 2 2 2 2 2 2 2 2 1 1 1
7 5 3 5 6 5 6 1 7 9 10 10 10 10 10 10 9 9 8 8 7 7 7 7 7 7 6 5 4 3 3 2 2 2 2 3 3 3 2 2 2 3 2 2 1 2 1 1 1
4 4 3 3 5 6 6 4 6 9 9 10 10 10 10 10 10 9 9 8 7 7 7 8 7 7 6 5 4 3 3 3 2 2 2 2 2 3 2 3 3 2 2 2 1 1 1 1 1
6 6 4 2 3 6 7 6 6 9 10 10 11 11 11 10 10 10 9 8 8 8 8 8 7 7 6 5 4 4 3 3 3 3 3 3 2 3 2 2 3 2 2 2 2 2 2 2 1
8 8 6 3 4 5 6 7 7 10 12 11 11 11 12 11 11 11 10 10 9 9 9 9 8 8 7 5 4 3 2 2 2 2 3 3 3 3 3 2 2 2 2 2 2 2 2 1 2
10 9 7 5 4 7 6 7 8 9 11 11 12 12 12 12 13 13 12 11 11 10 10 9 9 8 8 7 5 4 3 3 3 3 3 3 3 3 2 3 2 2 3 2 2 3 3 2 2
10 7 7 7 8 5 6 5 5 8 10 12 12 13 13 13 14 14 14 13 12 12 11 10 9 9 8 8 7 6 4 4 3 3 3 3 3 3 3 3 3 3 2 2 3 3 2 3 3
7 4 7 9 9 8 7 7 3 7 8 11 12 13 13 14 14 15 14 14 13 12 11 11 11 10 9 9 8 7 6 4 3 3 4 3 3 3 4 4 4 3 3 3 2 2 3 3 3
6 6 6 9 10 10 7 8 4 5 7 8 10 12 13 14 14 15 14 13 13 12 12 12 12 11 10 10 9 8 7 6 5 5 4 4 4 4 4 4 4 4 3 3 4 3 4 3 3
11 10 8 9 9 8 5 7 5 2 4 6 8 10 11 13 14 15 15 15 14 14 13 12 12 11 11 10 10 9 8 7 7 6 5 5 4 4 5 4 4 4 4 4 4 4 4 4 4
14 14 11 9 8 7 7 8 4 2 3 5 6 8 10 11 13 14 15 15 15 15 14 13 13 12 11 11 10 9 8 7 6 7 5 5 4 4 4 5 5 5 5 4 4 4 4 4 4
13 14 13 12 12 10 7 7 6 5 5 6 6 7 9 10 12 13 14 15 15 15 15 14 13 12 11 11 10 9 9 8 7 6 6 5 4 5 5 5 5 5 5 5 5 4 4 4 5
12 11 10 12 11 12 10 9 6 5 5 6 7 7 8 9 11 11 12 13 13 13 13 13 13 12 12 11 10 9 9 8 7 7 6 5 5 5 5 5 5 5 5 5 5 5 4 5 5
12 14 12 12 12 12 11 7 3 4 5 5 6 7 7 8 10 10 11 11 11 11 12 12 12 12 11 11 10 9 9 8 8 7 7 6 6 7 7 6 6 6 5 5 5 5 5 5 4
13 15 15 13 12 12 13 8 2 3 4 5 5 6 5 6 8 9 10 10 11 11 12 12 12 12 11 10 10 9 9 8 8 8 7 7 7 7 7 6 6 6 6 5 5 5 5 5 5
Wind_Direction
168 175 200 231 226 81 66 62 62 72 66 63 60 54 55 45 34 71 69 57 57 70 77 80 61 58 70 79 86 86 87 87 89 92 94 95 98 98 100 106 108 111 113 114 115 116 116 116 116
167 178 224 243 31 76 69 60 63 62 84 93 77 70 69 63 57 87 88 73 77 74 76 72 66 68 77 84 89 87 86 86 90 93 95 96 99 100 101 105 105 110 112 113 114 116 117 117 117
176 219 263 24 54 60 69 67 75 83 90 84 81 66 59 70 78 86 89 99 92 81 82 80 72 75 81 85 85 85 86 86 90 94 97 99 101 102 103 103 104 107 109 113 113 114 116 116 116
205 225 232 66 69 62 68 79 90 95 86 77 88 85 78 68 78 94 104 106 98 91 89 88 80 80 83 83 83 83 84 88 92 94 97 99 102 104 105 105 106 107 108 108 111 112 113 114 115
243 258 91 77 72 72 74 77 82 80 77 85 89 95 90 83 95 104 107 107 98 93 93 93 89 85 84 83 83 83 84 87 92 94 95 99 102 105 108 108 108 109 110 110 110 111 113 114 117
245 267 63 74 78 79 83 92 93 85 92 97 103 102 94 110 113 109 107 106 101 100 98 100 101 92 87 87 86 86 86 87 91 94 96 101 104 106 108 109 110 112 113 113 112 113 114 114 115
306 28 64 75 84 87 84 98 91 91 97 97 105 103 115 125 120 119 115 111 105 103 104 106 111 107 101 94 89 88 89 90 93 95 100 103 105 108 109 110 110 111 112 113 115 116 117 118 118
301 23 79 77 78 82 104 110 92 94 96 106 111 106 127 137 135 126 123 119 112 108 105 106 106 106 113 109 100 95 96 97 99 100 106 115 117 118 120 117 112 114 114 114 116 119 121 122 123
265 78 70 65 69 92 118 119 108 106 115 114 99 100 123 137 140 136 130 121 114 112 113 114 116 118 117 113 112 113 113 112 120 115 120 133 123 121 125 110 115 117 119 120 121 125 132 139 141
269 60 65 60 65 97 123 122 124 136 127 122 116 114 129 141 145 144 137 131 129 128 127 124 120 118 121 115 117 114 112 112 110 107 116 112 109 111 115 121 125 126 128 132 131 141 160 177 147
59 65 74 82 83 98 120 121 132 137 123 131 137 141 148 151 152 149 143 140 138 142 137 132 127 128 125 122 121 114 112 115 116 114 118 113 121 123 123 127 135 138 143 133 141 162 156 147 130
99 85 86 98 104 111 111 116 124 109 93 121 139 147 154 159 158 155 151 150 149 151 148 139 133 132 125 114 117 126 123 122 115 118 123 122 118 118 116 122 123 132 127 127 136 136 131 142 149
125 104 108 119 125 116 122 116 114 116 115 130 139 150 159 161 159 158 157 159 159 164 162 153 149 143 139 131 128 116 115 120 119 121 121 126 129 123 115 113 122 125 127 143 144 134 137 159 160
114 121 126 134 132 140 136 124 130 126 138 143 151 158 163 164 164 160 166 173 173 171 165 162 164 156 153 149 142 128 128 125 120 126 128 138 130 123 126 132 128 128 131 125 139 136 155 164 136
156 151 149 152 157 158 166 149 145 142 153 155 162 165 166 171 174 176 178 181 177 173 167 168 170 165 164 162 161 152 148 141 138 133 138 155 152 146 152 140 145 127 129 143 151 143 162 166 162
196 202 181 161 179 183 224 126 139 155 166 167 171 173 179 182 187 185 186 186 180 174 170 176 173 164 166 168 167 157 147 136 139 142 147 157 155 160 171 148 128 131 154 162 148 167 157 146 170
211 224 200 162 190 197 225 200 148 170 179 180 181 183 186 187 195 193 192 189 184 180 178 177 176 172 171 166 167 164 151 157 157 150 154 149 161 167 179 155 131 172 172 167 188 130 179 164 181
222 235 221 204 186 213 227 225 177 185 194 193 191 191 192 195 197 193 193 189 185 181 181 181 180 179 176 174 169 167 166 173 171 161 148 160 169 165 190 172 159 186 169 173 163 150 169 210 209
262 262 250 223 188 224 238 236 209 197 204 202 199 197 198 199 193 191 192 192 187 183 183 184 184 178 182 184 188 182 182 182 172 175 167 177 183 171 197 193 163 198 174 185 188 187 173 190 179
245 251 247 215 206 240 253 249 228 209 211 211 207 203 202 198 191 190 193 193 192 188 186 185 187 184 188 184 192 191 188 190 182 189 170 189 184 191 193 191 203 181 178 184 193 199 232 208 197
238 250 259 249 219 227 257 240 223 208 211 214 216 212 206 202 196 192 194 194 194 192 191 190 188 186 191 188 189 183 180 205 194 189 183 189 189 191 202 196 209 201 216 188 199 206 220 232 225
235 242 253 248 240 239 244 269 212 203 207 212 213 211 208 204 200 195 194 194 195 193 190 189 187 188 189 191 197 201 203 205 196 199 175 179 185 194 205 213 208 222 221 191 218 190 223 235 246
240 235 233 241 249 257 238 266 224 193 214 213 210 209 207 204 200 198 197 194 194 192 188 186 187 190 190 195 196 203 210 206 197 186 174 198 189 203 212 218 217 218 226 216 238 217 236 235 253
194 199 218 234 245 246 246 258 251 212 219 214 208 205 204 201 200 199 196 192 193 190 189 187 186 190 191 195 200 203 206 207 203 194 192 204 202 202 204 212 215 220 222 214 218 219 216 240 259
209 223 226 226 229 242 224 248 256 249 217 218 211 203 199 198 197 196 194 191 191 192 191 188 186 190 192 195 201 203 206 206 206 208 203 211 207 203 200 214 218 225 220 221 216 208 224 220 228
215 231 239 246 247 240 210 243 249 217 213 222 214 199 193 193 194 195 193 191 192 193 193 190 188 192 193 195 199 203 207 212 211 211 220 212 218 213 200 210 219 223 222 221 211 217 212 214 225
219 230 246 254 259 261 239 237 238 221 216 213 206 194 191 191 190 192 190 191 192 192 193 192 190 191 193 194 194 199 204 214 216 210 218 222 219 215 207 214 221 222 220 223 219 225 224 219 228
240 233 234 243 249 253 245 238 237 222 218 205 200 196 191 189 187 186 186 188 189 189 189 191 191 191 191 192 195 194 199 205 211 216 216 222 222 218 211 214 220 220 217 215 219 222 221 227 232
213 221 231 242 249 255 255 242 218 222 220 214 205 199 193 188 183 182 181 181 180 182 183 186 186 187 189 192 193 196 197 202 207 213 216 216 217 212 213 215 217 218 218 215 215 229 225 229 235
230 229 226 232 238 248 261 253 170 203 212 213 210 193 187 183 178 176 174 173 177 180 182 182 184 187 189 189 189 193 197 202 207 210 214 213 213 213 213 215 217 220 218 215 216 225 226 230 234
Height
1493 1493 1494 1496 1489 1485 1492 1492 1489 1492 1495 1499 1500 1499 1500 1502 1504 1513 1514 1512 1511 1510 1509 1506 1502 1498 1495 1494 1497 1498 1498 1498 1498 1499 1500 1501 1502 1503 1504 1506 1508 1510 1513 1515 1517 1520 1522 1525 1528
1495 1495 1496 1493 1485 1493 1498 1492 1493 1496 1499 1501 1502 1503 1503 1506 1510 1512 1513 1513 1513 1512 1511 1508 1504 1500 1497 1497 1500 1501 1502 1502 1502 1502 1504 1505 1506 1507 1508 1510 1512 1514 1517 1519 1521 1523 1526 1528 1531
1495 1496 1495 1486 1487 1494 1498 1495 1496 1499 1501 1502 1503 1505 1507 1510 1513 1514 1515 1514 1514 1514 1512 1510 1507 1505 1503 1503 1504 1505 1505 1506 1506 1506 1507 1509 1510 1511 1513 1514 1516 1518 1520 1522 1524 1527 1529 1532 1534
1497 1497 1492 1487 1492 1493 1493 1495 1497 1499 1502 1504 1504 1507 1511 1514 1515 1516 1515 1516 1516 1516 1515 1513 1511 1510 1509 1509 1509 1509 1509 1509 1510 1511 1512 1513 1514 1515 1517 1518 1520 1522 1524 1525 1528 1530 1533 1535 1537
1497 1492 1486 1489 1492 1493 1494 1497 1498 1498 1502 1504 1505 1508 1513 1517 1516 1517 1517 1517 1518 1518 1517 1516 1514 1513 1513 1513 1513 1513 1513 1513 1514 1515 1516 1517 1518 1519 1521 1522 1524 1526 1528 1530 1532 1534 1536 1538 1539
1495 1486 1487 1494 1495 1494 1496 1499 1499 1500 1504 1506 1507 1509 1515 1518 1518 1518 1518 1519 1519 1520 1519 1518 1517 1516 1516 1516 1516 1516 1517 1517 1518 1519 1519 1520 1521 1523 1524 1526 1528 1529 1531 1534 1536 1537 1539 1541 1542
1493 1484 1489 1491 1494 1495 1498 1500 1500 1501 1504 1507 1509 1510 1516 1519 1519 1520 1520 1520 1521 1522 1521 1521 1521 1520 1519 1519 1519 1519 1520 1520 1521 1522 1523 1524 1525 1527 1528 1530 1532 1533 1535 1537 1539 1540 1542 1544 1545
1494 1486 1487 1489 1493 1495 1498 1500 1502 1503 1506 1510 1510 1511 1515 1519 1520 1521 1521 1522 1522 1523 1523 1523 1523 1523 1523 1523 1522 1522 1523 1523 1524 1525 1526 1527 1529 1530 1532 1534 1535 1537 1538 1540 1541 1543 1544 1546 1547
1494 1486 1489 1489 1491 1494 1498 1500 1504 1506 1508 1510 1512 1513 1516 1519 1521 1522 1522 1523 1524 1524 1524 1525 1525 1525 1525 1526 1525 1525 1526 1526 1527 1528 1529 1531 1533 1535 1536 1537 1538 1539 1541 1542 1544 1545 1547 1548 1549
1490 1486 1489 1489 1489 1492 1497 1499 1503 1505 1507 1510 1513 1516 1518 1520 1521 1522 1523 1524 1524 1525 1526 1526 1527 1527 1527 1527 1528 1528 1529 1529 1530 1531 1532 1534 1535 1537 1538 1539 1541 1542 1543 1544 1546 1547 1548 1550 1552
1489 1488 1489 1491 1493 1494 1497 1500 1502 1502 1504 1509 1512 1516 1518 1520 1522 1523 1524 1524 1525 1526 1527 1527 1528 1528 1529 1529 1530 1530 1531 1531 1532 1533 1534 1535 1537 1539 1541 1542 1543 1544 1546 1547 1548 1550 1551 1553 1553
1491 1491 1492 1493 1495 1496 1497 1500 1502 1503 1506 1510 1513 1516 1518 1520 1522 1523 1524 1525 1526 1527 1527 1528 1529 1529 1529 1531 1531 1532 1533 1533 1534 1534 1536 1537 1538 1540 1542 1543 1545 1546 1547 1548 1550 1551 1552 1553 1554
1491 1491 1493 1495 1496 1497 1499 1500 1503 1505 1509 1511 1514 1516 1518 1520 1522 1523 1524 1525 1526 1526 1527 1528 1529 1529 1530 1531 1532 1533 1534 1535 1535 1536 1537 1538 1540 1541 1543 1544 1545 1547 1548 1549 1550 1551 1552 1553 1554
1491 1492 1493 1495 1496 1498 1499 1501 1503 1506 1510 1512 1514 1516 1519 1520 1522 1523 1524 1525 1526 1526 1527 1528 1529 1530 1531 1531 1532 1534 1535 1536 1537 1537 1538 1539 1541 1542 1543 1544 1546 1547 1548 1549 1550 1551 1552 1553 1554
1492 1491 1493 1494 1496 1498 1498 1500 1502 1506 1509 1512 1514 1516 1519 1520 1522 1523 1523 1524 1525 1526 1527 1528 1529 1531 1531 1533 1534 1535 1536 1537 1538 1538 1539 1540 1541 1542 1544 1545 1546 1547 1548 1549 1550 1551 1552 1553 1553
1489 1489 1492 1492 1494 1497 1498 1499 1500 1505 1508 1510 1513 1516 1518 1520 1521 1522 1523 1524 1525 1526 1527 1528 1530 1531 1532 1533 1534 1536 1537 1538 1538 1539 1540 1540 1541 1542 1544 1545 1547 1547 1548 1549 1550 1551 1552 1553 1553
1488 1489 1489 1491 1492 1494 1495 1496 1498 1504 1506 1508 1511 1514 1516 1519 1520 1522 1523 1524 1525 1526 1527 1528 1530 1531 1532 1533 1534 1536 1537 1538 1539 1539 1540 1541 1541 1543 1544 1545 1546 1547 1548 1549 1550 1551 1552 1552 1553
1488 1486 1488 1489 1489 1492 1493 1493 1496 1501 1503 1505 1509 1511 1514 1516 1518 1520 1522 1524 1525 1526 1527 1528 1529 1531 1532 1533 1534 1536 1537 1538 1539 1540 1540 1541 1542 1543 1544 1545 1546 1548 1549 1549 1549 1550 1550 1551 1552
1482 1485 1487 1486 1486 1490 1491 1491 1492 1497 1500 1502 1505 1508 1511 1513 1516 1519 1520 1522 1524 1525 1526 1527 1529 1530 1532 1533 1535 1536 1537 1538 1539 1540 1540 1541 1542 1543 1544 1546 1546 1547 1548 1548 1549 1550 1550 1551 1551
1483 1486 1486 1485 1486 1489 1489 1489 1488 1492 1496 1498 1501 1505 1508 1510 1514 1516 1518 1520 1522 1524 1525 1527 1528 1530 1531 1533 1534 1535 1537 1538 1539 1540 1540 1541 1542 1543 1544 1545 1546 1547 1547 1548 1548 1549 1550 1550 1551
1484 1484 1484 1486 1486 1486 1488 1489 1485 1487 1492 1496 1498 1501 1504 1507 1510 1513 1516 1518 1520 1522 1524 1526 1527 1529 1530 1532 1534 1535 1536 1537 1539 1539 1540 1541 1541 1542 1543 1544 1546 1546 1547 1548 1548 1548 1549 1550 1550
1485 1480 1483 1486 1488 1486 1487 1492 1483 1482 1487 1491 1494 1496 1499 1503 1506 1509 1512 1515 1518 1520 1522 1524 1526 1528 1529 1531 1533 1534 1536 1537 1538 1538 1539 1540 1541 1542 1543 1544 1545 1545 1546 1546 1547 1548 1548 1548 1549
1479 1478 1481 1484 1485 1485 1484 1489 1481 1479 1483 1484 1487 1491 1494 1498 1502 1505 1509 1512 1515 1518 1520 1522 1524 1526 1528 1530 1531 1533 1535 1536 1537 1537 1537 1539 1540 1541 1542 1543 1543 1544 1545 1545 1545 1546 1546 1547 1547
1479 1481 1483 1482 1482 1494 1486 1489 1485 1474 1477 1478 1481 1486 1490 1494 1498 1502 1506 1510 1513 1516 1518 1520 1522 1524 1526 1528 1530 1531 1533 1534 1535 1535 1536 1538 1539 1540 1541 1541 1542 1543 1544 1544 1544 1544 1544 1544 1545
1478 1484 1494 1496 1495 1491 1480 1485 1480 1469 1471 1474 1477 1482 1486 1490 1494 1498 1502 1506 1509 1512 1515 1518 1519 1522 1524 1526 1528 1530 1531 1532 1533 1534 1535 1537 1538 1539 1539 1540 1540 1541 1541 1542 1542 1542 1543 1543 1543
1475 1477 1492 1501 1496 1484 1482 1482 1470 1467 1470 1474 1476 1479 1483 1487 1491 1495 1498 1502 1506 1509 1512 1515 1517 1519 1522 1524 1526 1528 1530 1531 1532 1533 1535 1536 1537 1538 1538 1538 1539 1539 1540 1540 1540 1541 1541 1540 1541
1472 1472 1467 1476 1480 1484 1477 1472 1467 1466 1469 1472 1474 1477 1480 1484 1487 1491 1495 1499 1502 1506 1509 1512 1514 1517 1519 1522 1524 1525 1527 1529 1531 1531 1532 1534 1534 1535 1536 1536 1537 1537 1538 1538 1538 1539 1538 1538 1539
1465 1465 1471 1476 1492 1493 1481 1476 1472 1466 1467 1469 1472 1475 1478 1482 1485 1489 1492 1496 1499 1503 1506 1509 1512 1514 1517 1520 1522 1524 1525 1527 1528 1529 1530 1531 1532 1533 1534 1534 1535 1535 1536 1536 1536 1536 1536 1536 1536
1468 1469 1469 1470 1471 1485 1488 1476 1459 1463 1465 1467 1470 1474 1476 1479 1482 1486 1490 1493 1497 1500 1504 1506 1509 1512 1514 1517 1519 1521 1523 1525 1526 1527 1528 1529 1530 1531 1531 1532 1533 1533 1534 1534 1534 1534 1534 1534 1534
1460 1461 1465 1476 1478 1474 1475 1472 1457 1460 1463 1466 1469 1472 1476 1478 1481 1484 1487 1491 1494 1498 1501 1504 1507 1509 1512 1514 1516 1518 1520 1522 1523 1524 1525 1526 1527 1528 1529 1530 1530 1531 1531 1532 1532 1532 1532 1531 1531